Weather History for Juliana Airport, St. Martin

Change the Weather History Date:

Monday, March 17, 2014

  Actual Average Record
Temperature  
Mean Temperature 80 °F -  
Max Temperature 83 °F 83 °F 86 °F (1998)
Min Temperature 76 °F 73 °F 68 °F (2008)
Cooling Degree Days 14    
Growing Degree Days 30 (Base 50)    
Moisture  
Dew Point 68 °F    
Average Humidity 65    
Maximum Humidity 78    
Minimum Humidity 42    
Precipitation  
Precipitation 0.00 in 0.07 in - ()
Sea Level Pressure  
Sea Level Pressure 29.98 in    
Wind  
Wind Speed 10 mph ()    
Max Wind Speed 13 mph    
Max Gust Speed -    
Visibility 6.2 miles    
Events      
Averages and records for this station are not official NWS values.
T = Trace of Precipitation, MM = Missing Value Source: Averaged Metar Reports

Daily Weather History Graph

Daily Weather History Graph

Search for Another Location

Airport:

Trip Planner

Search our weather history database for the weather conditions in past years. The results will help you decide how hot, cold, wet, or windy it might be!

Date:

Astronomy

Mar. 17, 2014 Rise Set
Actual Time 6:18 AM AST 6:22 PM AST
Civil Twilight 5:57 AM AST 6:44 PM AST
Nautical Twilight 5:32 AM AST 7:09 PM AST
Astronomical Twilight 5:06 AM AST 7:35 PM AST
Moon 7:20 PM AST (3/17) 6:42 AM AST (3/17)
Length of Visible Light 12h 47m
Length of Day
12h 03m
Full, 99% of the Moon is Illuminated
Mar 17
Full
Mar 23
Last Quarter
Mar 30
New
Apr 7
First Quarter
Apr 15
Full

Hourly Weather History & Observations

Time (AST) Temp. Heat Index Dew Point Humidity Pressure Visibility Wind Dir Wind Speed Gust Speed Precip Events Conditions
12:00 AM 77.0 °F - 69.8 °F 78% 29.98 in 6.2 mi East 10.4 mph - N/A   Partly Cloudy
1:00 AM 77.0 °F - 68.0 °F 74% 29.98 in 6.2 mi East 10.4 mph - N/A   Partly Cloudy
2:00 AM 77.0 °F - 68.0 °F 74% 29.95 in 6.2 mi East 11.5 mph - N/A   Partly Cloudy
3:00 AM 77.0 °F - 68.0 °F 74% 29.95 in 6.2 mi East 10.4 mph - N/A   Partly Cloudy
4:00 AM 77 °F - 69 °F 68% 29.96 in 37 mi East 11.5 mph - -  
4:00 AM 77.0 °F - 68.0 °F 74% 29.92 in 6.2 mi East 10.4 mph - N/A   Partly Cloudy
5:00 AM 77 °F - 68 °F 66% 29.95 in 37 mi East 11.5 mph - -   Scattered Clouds
5:00 AM 77.0 °F - 68.0 °F 74% 29.95 in 6.2 mi East 11.5 mph - N/A   Partly Cloudy
6:00 AM 77.0 °F - 68.0 °F 74% 29.95 in 6.2 mi East 11.5 mph - N/A   Partly Cloudy
7:00 AM 77.0 °F - 68.0 °F 74% 29.98 in 6.2 mi East 10.4 mph - N/A   Partly Cloudy
8:00 AM 79 °F - 68 °F 61% 30.00 in 44 mi ESE 12.7 mph - -   Partly Cloudy
8:00 AM 78.8 °F - 68.0 °F 69% 29.98 in 6.2 mi ESE 12.7 mph - N/A   Scattered Clouds
9:00 AM 80.6 °F 83.2 °F 68.0 °F 65% 30.01 in 6.2 mi East 11.5 mph - N/A   Partly Cloudy
10:00 AM 80.6 °F 83.2 °F 68.0 °F 65% 30.04 in 6.2 mi East 11.5 mph - N/A   Scattered Clouds
11:00 AM 82 °F - 68 °F 54% 30.03 in 44 mi East 11.5 mph - -   Partly Cloudy
11:00 AM 80.6 °F 83.2 °F 68.0 °F 65% 30.01 in 6.2 mi East 11.5 mph - N/A   Scattered Clouds
12:00 PM 82.4 °F 83.9 °F 64.4 °F 54% 30.01 in 6.2 mi ESE 12.7 mph - N/A   Scattered Clouds
1:00 PM 82.4 °F 85.4 °F 68.0 °F 62% 29.95 in 6.2 mi East 11.5 mph - N/A   Partly Cloudy
2:00 PM 83 °F - 64 °F 42% 29.96 in 44 mi East 11.5 mph - -  
2:00 PM 82.4 °F 83.9 °F 64.4 °F 54% 29.95 in 6.2 mi East 11.5 mph - N/A   Scattered Clouds
3:00 PM 82.4 °F 85.4 °F 68.0 °F 62% 29.92 in 6.2 mi East 12.7 mph - N/A   Scattered Clouds
4:00 PM 82.4 °F 84.6 °F 66.2 °F 58% 29.95 in 6.2 mi East 10.4 mph - N/A   Scattered Clouds
5:00 PM 82 °F - 66 °F 50% 29.96 in 44 mi East 10.4 mph - -   Partly Cloudy
6:00 PM 80.6 °F 83.2 °F 68.0 °F 65% 29.95 in 6.2 mi ENE 12.7 mph - N/A   Scattered Clouds
7:00 PM 78.8 °F - 68.0 °F 69% 29.98 in 6.2 mi East 12.7 mph - N/A   Scattered Clouds
8:00 PM 78 °F - 68 °F 63% 30.01 in 31 mi East 10.4 mph - -   Scattered Clouds
8:00 PM 78.8 °F - 68.0 °F 69% 30.01 in 6.2 mi East 10.4 mph - N/A   Partly Cloudy
9:00 PM 78.8 °F - 68.0 °F 69% 30.01 in 6.2 mi East 10.4 mph - N/A   Partly Cloudy
10:00 PM 78.8 °F - 68.0 °F 69% 30.01 in 6.2 mi East 9.2 mph - N/A   Scattered Clouds
11:00 PM 78.8 °F - 68.0 °F 69% 30.01 in 6.2 mi East 9.2 mph - N/A   Scattered Clouds